ABS-2

Last updated on Jan. 15, 2021, 6:31 a.m. UTC

1 39508U 14006A   21014.89628628 -.00000093  00000-0  00000-0 0  9996
2 39508   0.0147  52.3130 0003357 269.9894 189.8305  1.00271740 25449
UTC
Height (km)
Latitude
Longitude
Inclination
Orbital Period
UTC large
Height (km)
Speed (km/s)
/
Latitude / Longitude
Inclination (degrees)
Orbital Period (minutes)
Azimuth
Elevation
Range (km)
Doppler Factor
iOS Compass Heading
iOS Angle

Next 30 passes for location: Hong Kong

Rise time Rise Azimuth (degrees) Set time Set Azimuth (degrees) Duration Max altitude (degrees)

No matching passes for this satellites